Regional Weather Roundup
Issued by NWS Cleveland, OH

Home | Current Version | Previous Version | Graphics & Text | Print | Product List | Glossary On
Versions: 1 2 3 4 5 6 7 8 9 10 11 12 13 14 15 16 17 18 19 20 21 22 23 24 25 26 27 28 29 30 31 32 33 34 35 36 37 38 39 40 41 42 43 44 45 46 47 48 49 50
000
ASUS41 KCLE 072002
RWRCLE
OHIO REGIONAL WEATHER ROUNDUP
NATIONAL WEATHER SERVICE CLEVELAND, OH
300 PM EST WED DEC 07 2016

NOTE: "FAIR" INDICATES FEW OR NO CLOUDS BELOW 12,000 FEET WITH NO
SIGNIFICANT WEATHER AND/OR OBSTRUCTIONS TO VISIBILITY.

OHZ001>008-015>018-024>027-034-035-043-044-072100-
   NORTHWEST OHIO

CITY           SKY/WX    TMP DP  RH WIND       PRES   REMARKS
DEFIANCE       CLOUDY    35  22  58 W8G16     30.06F WCI  29
FINDLAY        SUNNY     37  22  54 SW13      30.05F
TOLEDO EXPRESS MOSUNNY   34  23  64 SW16      30.04F WCI  24
TOLEDO EXEC    PTSUNNY   35  25  66 SW16      30.05F WCI  25
LIMA           MOSUNNY   35  23  61 SW14      30.06F WCI  26
$$

OHZ009>014-019>023-028>033-038-089-072100-
   NORTHEAST OHIO

CITY           SKY/WX    TMP DP  RH WIND       PRES   REMARKS
CLE-HOPKINS    PTSUNNY   37  21  52 SW12      30.07F
CLE-LAKEFRONT  MOSUNNY   37  21  52 SW14      30.04F
CUY CO. ARPT   PTSUNNY   39  25  56 W16       30.04F
LORAIN-ELYRIA  MOSUNNY   35  22  58 W13       30.06S WCI  26
ASHTABULA      MOSUNNY   38  25  59 W10       30.03S
AKRON-CANTON   CLOUDY    37  21  52 W14       30.06R
WOOSTER        SUNNY     36  22  56 SW12      30.06S
MANSFIELD      SUNNY     36  21  54 SW8       30.05F
YOUNGSTOWN     PTSUNNY   36  22  56 SW13      30.04R
$$

OHZ042-051>053-060>062-070>072-077>081-072100-
  SOUTHWEST OHIO

CITY           SKY/WX    TMP DP  RH WIND       PRES   REMARKS
CINC-COVINGTON CLOUDY    38  22  52 W8        30.12S
CINC-LUNKEN    CLOUDY    40  24  53 W9        30.15R
HAMILTON       CLOUDY    39  22  50 SW8       30.14S
DAYTON         MOSUNNY   37  22  54 SW12      30.11S
WRIGHT-PAT AFB MOSUNNY   38  22  51 SW10      30.11R
DAYTON GENERAL CLOUDY    37  21  52 SW9       30.11R
WILMINGTON     CLOUDY    37  21  52 W8        30.10S
$$

OHZ036-037-039>041-045>050-054>059-063>069-073>076-082>088-072100-
  CENTRAL AND SOUTHEAST OHIO

CITY           SKY/WX    TMP DP  RH WIND       PRES   REMARKS
COLUMBUS       CLOUDY    37  23  56 SW9       30.10S
OSU AIRPORT    CLOUDY    37  25  61 SW7       30.09S
BOLTON FIELD   CLOUDY    36  25  64 SW8       30.11S
RICKENBACK AFB   N/A     36  24  61 W8        30.11R
NEWARK         CLOUDY    37  24  59 SW9       30.09S
MARION         SUNNY     36  24  62 SW12      30.08F
LANCASTER      CLOUDY    37  24  59 W8        30.11S
ZANESVILLE     CLOUDY    39  23  52 W8        30.08F
NEW PHILLY     CLOUDY    38  25  59 SW7       30.09
$$




USA.gov is the U.S. government's official web portal to all federal, state and local government web resources and services.